Погода в Каралате

Россия / Астраханская область     45°54′42″N   48°18′14″E
В апреле 2022 года жителям России запретили посещать сайт meteo.paraplan.net по решению Генеральной прокуратуры. Аудитория сайта уменьшилась в 10 раз. Владельцы сайта не видят смысла в поддержке погодного сервера в таких условиях. Сайт будет закрыт в октябре.
темп.,
°C
ветер,
м/с
пор.,
м/с
влажн.,
%
обл.,
%
осадки,
мм/ч
давл.,
гПа
погр.,
м
30 сентября, пт
пт3001:00+19сз23550 0.0 101523
04:00+18сз11605 0.0 101611
07:00+18сз11675 0.0 101811
10:00+24с11410 0.0 1018446
13:00+28ю11321 0.0 10192221
16:00+28ю443346 0.0 10181735
19:00+21ю465312 0.0 1020124
22:00+20ююз22580 0.0 102126
1 октября, сб
сб101:00+19юз226011 0.0 102111
04:00+19ююз116014 0.0 102111
07:00+20ююз115696 0.0 102211
10:00+25зюз11418 0.0 1022550
13:00+26зюз4337100 0.0 10221497
16:00+26ююз3239100 0.0 10211067
19:00+21ю3454100 0.0 102166
22:00+19ю346994 0.0 102156
2 октября, вс
вс201:00+18ю34718 0.0 102047
04:00+17ююв227479 0.0 102021
07:00+17ююв347765 0.0 101961
10:00+23ююв5638100 0.0 1019656
13:00+26ююв772766 0.0 10181093
16:00+23ююв7945100 0.0 1017898
19:00+18юв61277100 0.0 1016440
22:00+19юв7166279 0.0 1015559
3 октября, пн
пн301:00+19юв817555 0.0 1013724
04:00+19юв9185692 0.0 1013688
07:00+18юв101853100 0.0 1013690
10:00+19юв111747100 0.0 1014822
13:00+20юв111640100 0.0 1014883
16:00+20юв91341100 0.0 1014952
19:00+18вюв61153100 0.0 1015535
22:00+18вюв51155100 0.0 1016416
4 октября, вт
вт401:00+18юв6125192 0.0 1016444
04:00+17юв6115299 0.0 1017405
07:00+16юв6115315 0.0 1018354
10:00+20юв794035 0.0 1019793
13:00+21юв894199 0.0 1019953
16:00+20юв784796 0.0 1020813
19:00+16юв5964100 0.0 1021320
22:00+16юв4975100 0.0 1021252